Time,TemperatureF,DewpointF,PressureIn,WindDirection,WindDirectionDegrees,WindSpeedMPH,WindSpeedGustMPH,Humidity,HourlyPrecipIn,Conditions,Clouds,dailyrainin,SoftwareType,DateUTC
2013-03-16 00:00:00,41.2,31.1,29.76,North,5,6.9,6.9,67,0.00,CLR,SKC,0.00,WeatherDisplay:10.37,2013-03-16 04:00:00,
2013-03-16 00:05:00,41.1,31.3,29.76,NNE,33,3.4,3.4,68,0.00,CLR,SKC,0.00,WeatherDisplay:10.37,2013-03-16 04:05:00,
2013-03-16 00:10:00,40.9,30.8,29.76,NE,45,3.4,3.4,67,0.00,CLR,SKC,0.00,WeatherDisplay:10.37,2013-03-16 04:10:00,
2013-03-16 00:15:00,40.8,30.7,29.76,NE,46,4.0,4.0,67,0.00,CLR,SKC,0.00,WeatherDisplay:10.37,2013-03-16 04:15:00,
2013-03-16 00:20:00,40.7,30.6,29.76,NE,35,3.4,3.4,67,0.00,CLR,SKC,0.00,WeatherDisplay:10.37,2013-03-16 04:20:00,
2013-03-16 00:25:00,40.5,29.7,29.76,NNE,22,4.6,4.6,65,0.00,CLR,SKC,0.00,WeatherDisplay:10.37,2013-03-16 04:25:00,
2013-03-16 00:30:00,40.4,29.6,29.76,NNE,28,3.4,0.0,65,0.00,CLR,SKC,0.00,WeatherDisplay:10.37,2013-03-16 04:30:00,
2013-03-16 00:35:00,40.1,29.6,29.76,NNE,33,4.0,4.0,66,0.00,CLR,SKC,0.00,WeatherDisplay:10.37,2013-03-16 04:35:00,
2013-03-16 00:40:00,39.8,29.4,29.76,NE,42,4.0,4.0,66,0.00,CLR,SKC,0.00,WeatherDisplay:10.37,2013-03-16 04:40:00,
2013-03-16 00:45:00,39.7,29.3,29.76,NE,42,4.6,4.6,66,0.00,CLR,SKC,0.00,WeatherDisplay:10.37,2013-03-16 04:45:00,
2013-03-16 00:50:00,39.5,28.7,29.76,NNE,24,6.9,6.9,65,0.00,CLR,SKC,0.00,WeatherDisplay:10.37,2013-03-16 04:50:00,
2013-03-16 00:55:00,39.3,28.5,29.76,NNE,23,6.9,6.9,65,0.00,CLR,SKC,0.00,WeatherDisplay:10.37,2013-03-16 04:55:00,
2013-03-16 01:00:00,39.1,28.3,29.76,NE,38,5.8,5.8,65,0.00,CLR,SKC,0.00,WeatherDisplay:10.37,2013-03-16 05:00:00,
2013-03-16 01:05:00,39.0,28.2,29.75,NNE,13,3.4,3.4,65,0.00,CLR,SKC,0.00,WeatherDisplay:10.37,2013-03-16 05:05:00,
2013-03-16 01:07:00,38.9,28.1,29.76,NNE,24,4.6,4.6,65,0.00,CLR,SKC,0.00,WeatherDisplay:10.37,2013-03-16 05:07:00,
2013-03-16 01:10:00,38.9,28.1,29.76,NNE,24,4.6,4.6,65,0.00,CLR,SKC,0.00,WeatherDisplay:10.37,2013-03-16 05:10:00,
2013-03-16 01:15:00,38.9,28.1,29.76,NNE,24,4.6,4.6,65,0.00,CLR,SKC,0.00,WeatherDisplay:10.37,2013-03-16 05:15:00,
2013-03-16 01:27:00,38.9,28.1,29.76,NNE,24,4.6,4.6,65,0.00,CLR,SKC,0.00,WeatherDisplay:10.37,2013-03-16 05:27:00,
2013-03-16 01:34:00,38.9,28.1,29.76,NNE,24,4.6,4.6,65,0.00,CLR,SKC,0.00,WeatherDisplay:10.37,2013-03-16 05:34:00,
2013-03-16 01:47:00,38.9,28.1,29.76,NNE,24,4.6,4.6,65,0.00,CLR,SKC,0.00,WeatherDisplay:10.37,2013-03-16 05:47:00,
2013-03-16 01:52:00,38.9,28.1,29.76,NNE,24,4.6,4.6,65,0.00,CLR,SKC,0.00,WeatherDisplay:10.37,2013-03-16 05:52:00,
2013-03-16 02:00:00,38.9,28.1,29.76,NNE,24,4.6,4.6,65,0.00,CLR,SKC,0.00,WeatherDisplay:10.37,2013-03-16 06:00:00,
2013-03-16 02:05:00,38.9,28.1,29.76,NNE,24,4.6,4.6,65,0.00,CLR,SKC,0.00,WeatherDisplay:10.37,2013-03-16 06:05:00,
2013-03-16 02:10:00,38.9,28.1,29.76,NNE,24,4.6,4.6,65,0.00,CLR,SKC,0.00,WeatherDisplay:10.37,2013-03-16 06:10:00,
2013-03-16 02:35:00,38.9,28.1,29.76,NNE,24,4.6,4.6,65,0.00,CLR,SKC,0.00,WeatherDisplay:10.37,2013-03-16 06:35:00,
2013-03-16 02:44:00,38.9,28.1,29.76,NNE,24,4.6,4.6,65,0.00,CLR,SKC,0.00,WeatherDisplay:10.37,2013-03-16 06:44:00,
2013-03-16 02:50:00,38.9,28.1,29.76,NNE,24,4.6,4.6,65,0.00,CLR,SKC,0.00,WeatherDisplay:10.37,2013-03-16 06:50:00,
2013-03-16 02:59:00,38.9,28.1,29.76,NNE,24,4.6,4.6,65,0.00,CLR,SKC,0.00,WeatherDisplay:10.37,2013-03-16 06:59:00,
2013-03-16 03:11:00,38.9,28.1,29.76,NNE,24,4.6,4.6,65,0.00,CLR,SKC,0.00,WeatherDisplay:10.37,2013-03-16 07:11:00,
2013-03-16 03:24:00,38.9,28.1,29.76,NNE,24,4.6,4.6,65,0.00,CLR,SKC,0.00,WeatherDisplay:10.37,2013-03-16 07:24:00,
2013-03-16 03:29:00,38.9,28.1,29.76,NNE,24,4.6,4.6,65,0.00,CLR,SKC,0.00,WeatherDisplay:10.37,2013-03-16 07:29:00,
2013-03-16 03:34:00,38.9,28.1,29.76,NNE,24,4.6,4.6,65,0.00,CLR,SKC,0.00,WeatherDisplay:10.37,2013-03-16 07:34:00,
2013-03-16 03:39:00,38.9,28.1,29.76,NNE,24,4.6,4.6,65,0.00,CLR,SKC,0.00,WeatherDisplay:10.37,2013-03-16 07:39:00,
2013-03-16 03:55:00,38.9,28.1,29.76,NNE,24,4.6,4.6,65,0.00,CLR,SKC,0.00,WeatherDisplay:10.37,2013-03-16 07:55:00,
2013-03-16 04:19:00,38.9,28.1,29.76,NNE,24,4.6,4.6,65,0.00,CLR,SKC,0.00,WeatherDisplay:10.37,2013-03-16 08:19:00,
2013-03-16 04:25:00,38.9,28.1,29.76,NNE,24,4.6,4.6,65,0.00,CLR,SKC,0.00,WeatherDisplay:10.37,2013-03-16 08:25:00,
2013-03-16 04:33:00,38.9,28.1,29.76,NNE,24,4.6,4.6,65,0.00,CLR,SKC,0.00,WeatherDisplay:10.37,2013-03-16 08:33:00,
2013-03-16 04:55:00,38.9,28.1,29.76,NNE,24,4.6,4.6,65,0.00,CLR,SKC,0.00,WeatherDisplay:10.37,2013-03-16 08:55:00,
2013-03-16 05:05:00,38.9,28.1,29.76,NNE,24,4.6,4.6,65,0.00,CLR,SKC,0.00,WeatherDisplay:10.37,2013-03-16 09:05:00,
2013-03-16 05:12:00,38.9,28.1,29.76,NNE,24,4.6,4.6,65,0.00,CLR,SKC,0.00,WeatherDisplay:10.37,2013-03-16 09:12:00,
2013-03-16 05:19:00,38.9,28.1,29.76,NNE,24,4.6,4.6,65,0.00,CLR,SKC,0.00,WeatherDisplay:10.37,2013-03-16 09:19:00,
2013-03-16 05:29:00,38.9,28.1,29.76,NNE,24,4.6,4.6,65,0.00,CLR,SKC,0.00,WeatherDisplay:10.37,2013-03-16 09:29:00,
2013-03-16 06:04:00,38.9,28.1,29.76,NNE,24,4.6,4.6,65,0.00,CLR,SKC,0.00,WeatherDisplay:10.37,2013-03-16 10:04:00,
2013-03-16 06:17:00,38.9,28.1,29.76,NNE,24,4.6,4.6,65,0.00,CLR,SKC,0.00,WeatherDisplay:10.37,2013-03-16 10:17:00,
2013-03-16 06:22:00,38.9,28.1,29.76,NNE,24,4.6,4.6,65,0.00,CLR,SKC,0.00,WeatherDisplay:10.37,2013-03-16 10:22:00,
2013-03-16 06:35:00,38.9,28.1,29.76,NNE,24,4.6,4.6,65,0.00,CLR,SKC,0.00,WeatherDisplay:10.37,2013-03-16 10:35:00,
2013-03-16 06:40:00,38.9,28.1,29.76,NNE,24,4.6,4.6,65,0.00,CLR,SKC,0.00,WeatherDisplay:10.37,2013-03-16 10:40:00,
2013-03-16 06:47:00,38.9,28.1,29.76,NNE,24,4.6,4.6,65,0.00,CLR,SKC,0.00,WeatherDisplay:10.37,2013-03-16 10:47:00,
2013-03-16 07:02:00,38.9,28.1,29.76,NNE,24,4.6,4.6,65,0.00,CLR,SKC,0.00,WeatherDisplay:10.37,2013-03-16 11:02:00,
2013-03-16 07:11:00,38.9,28.1,29.76,NNE,24,4.6,4.6,65,0.00,CLR,SKC,0.00,WeatherDisplay:10.37,2013-03-16 11:11:00,
2013-03-16 07:16:00,38.9,28.1,29.76,NNE,24,4.6,4.6,65,0.00,CLR,SKC,0.00,WeatherDisplay:10.37,2013-03-16 11:16:00,
2013-03-16 07:25:00,38.9,28.1,29.76,NNE,24,4.6,4.6,65,0.00,CLR,SKC,0.00,WeatherDisplay:10.37,2013-03-16 11:25:00,
2013-03-16 07:34:00,38.9,28.1,29.76,NNE,24,4.6,4.6,65,0.00,CLR,SKC,0.00,WeatherDisplay:10.37,2013-03-16 11:34:00,
2013-03-16 07:39:00,38.9,28.1,29.76,NNE,24,4.6,4.6,65,0.00,CLR,SKC,0.00,WeatherDisplay:10.37,2013-03-16 11:39:00,
2013-03-16 07:46:00,38.9,28.1,29.76,NNE,24,4.6,4.6,65,0.00,CLR,SKC,0.00,WeatherDisplay:10.37,2013-03-16 11:46:00,
2013-03-16 07:54:00,38.9,28.1,29.76,NNE,24,4.6,4.6,65,0.00,CLR,SKC,0.00,WeatherDisplay:10.37,2013-03-16 11:54:00,
2013-03-16 07:59:00,38.9,28.1,29.76,NNE,24,4.6,4.6,65,0.00,CLR,SKC,0.00,WeatherDisplay:10.37,2013-03-16 11:59:00,
2013-03-16 08:14:00,38.9,28.1,29.76,NNE,24,4.6,4.6,65,0.00,CLR,SKC,0.00,WeatherDisplay:10.37,2013-03-16 12:14:00,
2013-03-16 08:23:00,38.9,28.1,29.76,NNE,24,4.6,4.6,65,0.00,CLR,SKC,0.00,WeatherDisplay:10.37,2013-03-16 12:23:00,
2013-03-16 08:31:00,38.9,28.1,29.76,NNE,24,4.6,4.6,65,0.00,CLR,SKC,0.00,WeatherDisplay:10.37,2013-03-16 12:31:00,
2013-03-16 08:36:00,38.9,28.1,29.76,NNE,24,4.6,4.6,65,0.00,CLR,SKC,0.00,WeatherDisplay:10.37,2013-03-16 12:36:00,
2013-03-16 08:47:00,38.9,28.1,29.76,NNE,24,4.6,4.6,65,0.00,CLR,SKC,0.00,WeatherDisplay:10.37,2013-03-16 12:47:00,
2013-03-16 08:53:00,38.9,28.1,29.76,NNE,24,4.6,4.6,65,0.00,CLR,SKC,0.00,WeatherDisplay:10.37,2013-03-16 12:53:00,
2013-03-16 09:06:00,38.9,28.1,29.76,NNE,24,4.6,4.6,65,0.00,CLR,SKC,0.00,WeatherDisplay:10.37,2013-03-16 13:06:00,
2013-03-16 09:16:00,38.9,28.1,29.76,NNE,24,4.6,4.6,65,0.00,CLR,SKC,0.00,WeatherDisplay:10.37,2013-03-16 13:16:00,
2013-03-16 09:22:00,38.9,28.1,29.76,NNE,24,4.6,4.6,65,0.00,CLR,SKC,0.00,WeatherDisplay:10.37,2013-03-16 13:22:00,
2013-03-16 09:40:00,38.9,28.1,29.76,NNE,24,4.6,4.6,65,0.00,CLR,SKC,0.00,WeatherDisplay:10.37,2013-03-16 13:40:00,
2013-03-16 09:50:00,38.9,28.1,29.76,NNE,24,4.6,4.6,65,0.00,CLR,SKC,0.00,WeatherDisplay:10.37,2013-03-16 13:50:00,
2013-03-16 10:00:00,38.9,28.1,29.76,NNE,24,4.6,4.6,65,0.00,CLR,SKC,0.00,WeatherDisplay:10.37,2013-03-16 14:00:00,
2013-03-16 10:14:00,38.9,28.1,29.76,NNE,24,4.6,4.6,65,0.00,CLR,SKC,0.00,WeatherDisplay:10.37,2013-03-16 14:14:00,
2013-03-16 10:25:00,38.9,28.1,29.76,NNE,24,4.6,4.6,65,0.00,CLR,SKC,0.00,WeatherDisplay:10.37,2013-03-16 14:25:00,
2013-03-16 10:32:00,38.9,28.1,29.76,NNE,24,4.6,4.6,65,0.00,CLR,SKC,0.00,WeatherDisplay:10.37,2013-03-16 14:32:00,
2013-03-16 10:54:00,38.9,28.1,29.76,NNE,24,4.6,4.6,65,0.00,CLR,SKC,0.00,WeatherDisplay:10.37,2013-03-16 14:54:00,
2013-03-16 10:59:00,38.9,28.1,29.76,NNE,24,4.6,4.6,65,0.00,CLR,SKC,0.00,WeatherDisplay:10.37,2013-03-16 14:59:00,
2013-03-16 11:05:00,38.9,28.1,29.76,NNE,24,4.6,4.6,65,0.00,CLR,SKC,0.00,WeatherDisplay:10.37,2013-03-16 15:05:00,
2013-03-16 11:14:00,38.9,28.1,29.76,NNE,24,4.6,4.6,65,0.00,CLR,SKC,0.00,WeatherDisplay:10.37,2013-03-16 15:14:00,
2013-03-16 11:20:00,38.9,28.1,29.76,NNE,24,4.6,4.6,65,0.00,CLR,SKC,0.00,WeatherDisplay:10.37,2013-03-16 15:20:00,
2013-03-16 11:35:00,38.9,28.1,29.76,NNE,24,4.6,4.6,65,0.00,CLR,SKC,0.00,WeatherDisplay:10.37,2013-03-16 15:35:00,
2013-03-16 11:56:00,38.9,28.1,29.76,NNE,24,4.6,4.6,65,0.00,CLR,SKC,0.00,WeatherDisplay:10.37,2013-03-16 15:56:00,
2013-03-16 12:01:00,38.9,28.1,29.76,NNE,24,4.6,4.6,65,0.00,CLR,SKC,0.00,WeatherDisplay:10.37,2013-03-16 16:01:00,
2013-03-16 12:11:00,38.9,28.1,29.76,NNE,24,4.6,4.6,65,0.00,CLR,SKC,0.00,WeatherDisplay:10.37,2013-03-16 16:11:00,
2013-03-16 12:46:00,38.9,28.1,29.76,NNE,24,4.6,4.6,65,0.00,CLR,SKC,0.00,WeatherDisplay:10.37,2013-03-16 16:46:00,
2013-03-16 12:54:00,38.9,28.1,29.76,NNE,24,4.6,4.6,65,0.00,CLR,SKC,0.00,WeatherDisplay:10.37,2013-03-16 16:54:00,
2013-03-16 12:59:00,38.9,28.1,29.76,NNE,24,4.6,4.6,65,0.00,CLR,SKC,0.00,WeatherDisplay:10.37,2013-03-16 16:59:00,
2013-03-16 13:07:00,38.9,28.1,29.76,NNE,24,4.6,4.6,65,0.00,CLR,SKC,0.00,WeatherDisplay:10.37,2013-03-16 17:07:00,
2013-03-16 13:22:00,38.9,28.1,29.76,NNE,24,4.6,4.6,65,0.00,CLR,SKC,0.00,WeatherDisplay:10.37,2013-03-16 17:22:00,
2013-03-16 13:33:00,38.9,28.1,29.76,NNE,24,4.6,4.6,65,0.00,CLR,SKC,0.00,WeatherDisplay:10.37,2013-03-16 17:33:00,
2013-03-16 13:50:00,38.9,28.1,29.76,NNE,24,4.6,4.6,65,0.00,CLR,SKC,0.00,WeatherDisplay:10.37,2013-03-16 17:50:00,
2013-03-16 14:00:00,38.9,28.1,29.76,NNE,24,4.6,4.6,65,0.00,CLR,SKC,0.00,WeatherDisplay:10.37,2013-03-16 18:00:00,
2013-03-16 14:10:00,38.9,28.1,29.76,NNE,24,4.6,4.6,65,0.00,CLR,SKC,0.00,WeatherDisplay:10.37,2013-03-16 18:10:00,
2013-03-16 14:15:00,38.9,28.1,29.76,NNE,24,4.6,4.6,65,0.00,CLR,SKC,0.00,WeatherDisplay:10.37,2013-03-16 18:15:00,
2013-03-16 14:27:00,38.9,28.1,29.76,NNE,24,4.6,4.6,65,0.00,CLR,SKC,0.00,WeatherDisplay:10.37,2013-03-16 18:27:00,
2013-03-16 14:32:00,38.9,28.1,29.76,NNE,24,4.6,4.6,65,0.00,CLR,SKC,0.00,WeatherDisplay:10.37,2013-03-16 18:32:00,
2013-03-16 14:40:00,38.9,28.1,29.76,NNE,24,4.6,4.6,65,0.00,CLR,SKC,0.00,WeatherDisplay:10.37,2013-03-16 18:40:00,
2013-03-16 14:45:00,38.9,28.1,29.76,NNE,24,4.6,4.6,65,0.00,CLR,SKC,0.00,WeatherDisplay:10.37,2013-03-16 18:45:00,
2013-03-16 14:51:00,38.9,28.1,29.76,NNE,24,4.6,4.6,65,0.00,CLR,SKC,0.00,WeatherDisplay:10.37,2013-03-16 18:51:00,
2013-03-16 15:04:00,38.9,28.1,29.76,NNE,24,4.6,4.6,65,0.00,CLR,SKC,0.00,WeatherDisplay:10.37,2013-03-16 19:04:00,
2013-03-16 15:09:00,38.9,28.1,29.76,NNE,24,4.6,4.6,65,0.00,CLR,SKC,0.00,WeatherDisplay:10.37,2013-03-16 19:09:00,
2013-03-16 15:14:00,38.9,28.1,29.76,NNE,24,4.6,4.6,65,0.00,CLR,SKC,0.00,WeatherDisplay:10.37,2013-03-16 19:14:00,
2013-03-16 15:19:00,38.9,28.1,29.76,NNE,24,4.6,4.6,65,0.00,CLR,SKC,0.00,WeatherDisplay:10.37,2013-03-16 19:19:00,
2013-03-16 15:53:00,38.9,28.1,29.76,NNE,24,4.6,4.6,65,0.00,CLR,SKC,0.00,WeatherDisplay:10.37,2013-03-16 19:53:00,
2013-03-16 16:06:00,38.9,28.1,29.76,NNE,24,4.6,4.6,65,0.00,CLR,SKC,0.00,WeatherDisplay:10.37,2013-03-16 20:06:00,
2013-03-16 16:11:00,38.9,28.1,29.76,NNE,24,4.6,4.6,65,0.00,CLR,SKC,0.00,WeatherDisplay:10.37,2013-03-16 20:11:00,
2013-03-16 16:19:00,38.9,28.1,29.76,NNE,24,4.6,4.6,65,0.00,CLR,SKC,0.00,WeatherDisplay:10.37,2013-03-16 20:19:00,
2013-03-16 16:51:00,38.9,28.1,29.76,NNE,24,4.6,4.6,65,0.00,CLR,SKC,0.00,WeatherDisplay:10.37,2013-03-16 20:51:00,
2013-03-16 17:35:00,38.9,28.1,29.76,NNE,24,4.6,4.6,65,0.00,CLR,SKC,0.00,WeatherDisplay:10.37,2013-03-16 21:35:00,
2013-03-16 17:42:00,38.9,28.1,29.76,NNE,24,4.6,4.6,65,0.00,CLR,SKC,0.00,WeatherDisplay:10.37,2013-03-16 21:42:00,
2013-03-16 17:58:00,38.9,28.1,29.76,NNE,24,4.6,4.6,65,0.00,CLR,SKC,0.00,WeatherDisplay:10.37,2013-03-16 21:58:00,
2013-03-16 18:06:00,38.9,28.1,29.76,NNE,24,4.6,4.6,65,0.00,CLR,SKC,0.00,WeatherDisplay:10.37,2013-03-16 22:06:00,
2013-03-16 18:12:00,38.9,28.1,29.76,NNE,24,4.6,4.6,65,0.00,CLR,SKC,0.00,WeatherDisplay:10.37,2013-03-16 22:12:00,
2013-03-16 18:17:00,38.9,28.1,29.76,NNE,24,4.6,4.6,65,0.00,CLR,SKC,0.00,WeatherDisplay:10.37,2013-03-16 22:17:00,
2013-03-16 18:31:00,38.9,28.1,29.76,NNE,24,4.6,4.6,65,0.00,CLR,SKC,0.00,WeatherDisplay:10.37,2013-03-16 22:31:00,
2013-03-16 18:38:00,38.9,28.1,29.76,NNE,24,4.6,4.6,65,0.00,CLR,SKC,0.00,WeatherDisplay:10.37,2013-03-16 22:38:00,
2013-03-16 18:54:00,38.9,28.1,29.76,NNE,24,4.6,4.6,65,0.00,CLR,SKC,0.00,WeatherDisplay:10.37,2013-03-16 22:54:00,
2013-03-16 19:24:00,38.9,28.1,29.76,NNE,24,4.6,4.6,65,0.00,CLR,SKC,0.00,WeatherDisplay:10.37,2013-03-16 23:24:00,
2013-03-16 19:34:00,38.9,28.1,29.76,NNE,24,4.6,4.6,65,0.00,CLR,SKC,0.00,WeatherDisplay:10.37,2013-03-16 23:34:00,
2013-03-16 19:47:00,38.9,28.1,29.76,NNE,24,4.6,4.6,65,0.00,CLR,SKC,0.00,WeatherDisplay:10.37,2013-03-16 23:47:00,
2013-03-16 20:10:00,38.9,28.1,29.76,NNE,24,4.6,4.6,65,0.00,CLR,SKC,0.00,WeatherDisplay:10.37,2013-03-17 00:10:00,
2013-03-16 20:24:00,38.9,28.1,29.76,NNE,24,4.6,4.6,65,0.00,CLR,SKC,0.00,WeatherDisplay:10.37,2013-03-17 00:24:00,
2013-03-16 20:29:00,38.9,28.1,29.76,NNE,24,4.6,4.6,65,0.00,CLR,SKC,0.00,WeatherDisplay:10.37,2013-03-17 00:29:00,
2013-03-16 20:37:00,38.9,28.1,29.76,NNE,24,4.6,4.6,65,0.00,CLR,SKC,0.00,WeatherDisplay:10.37,2013-03-17 00:37:00,
2013-03-16 20:48:00,38.9,28.1,29.76,NNE,24,4.6,4.6,65,0.00,CLR,SKC,0.00,WeatherDisplay:10.37,2013-03-17 00:48:00,
2013-03-16 20:59:00,38.9,28.1,29.76,NNE,24,4.6,4.6,65,0.00,CLR,SKC,0.00,WeatherDisplay:10.37,2013-03-17 00:59:00,
2013-03-16 21:12:00,38.9,28.1,29.76,NNE,24,4.6,4.6,65,0.00,CLR,SKC,0.00,WeatherDisplay:10.37,2013-03-17 01:12:00,
2013-03-16 21:35:00,38.9,28.1,29.76,NNE,24,4.6,4.6,65,0.00,CLR,SKC,0.00,WeatherDisplay:10.37,2013-03-17 01:35:00,
2013-03-16 21:43:00,38.9,28.1,29.76,NNE,24,4.6,4.6,65,0.00,CLR,SKC,0.00,WeatherDisplay:10.37,2013-03-17 01:43:00,
2013-03-16 21:48:00,38.9,28.1,29.76,NNE,24,4.6,4.6,65,0.00,CLR,SKC,0.00,WeatherDisplay:10.37,2013-03-17 01:48:00,
2013-03-16 22:05:00,38.9,28.1,29.76,NNE,24,4.6,4.6,65,0.00,CLR,SKC,0.00,WeatherDisplay:10.37,2013-03-17 02:05:00,
2013-03-16 22:13:00,38.9,28.1,29.76,NNE,24,4.6,4.6,65,0.00,CLR,SKC,0.00,WeatherDisplay:10.37,2013-03-17 02:13:00,
2013-03-16 22:23:00,38.9,28.1,29.76,NNE,24,4.6,4.6,65,0.00,CLR,SKC,0.00,WeatherDisplay:10.37,2013-03-17 02:23:00,
2013-03-16 23:07:00,38.9,28.1,29.76,NNE,24,4.6,4.6,65,0.00,CLR,SKC,0.00,WeatherDisplay:10.37,2013-03-17 03:07:00,
2013-03-16 23:18:00,38.9,28.1,29.76,NNE,24,4.6,4.6,65,0.00,CLR,SKC,0.00,WeatherDisplay:10.37,2013-03-17 03:18:00,
2013-03-16 23:23:00,38.9,28.1,29.76,NNE,24,4.6,4.6,65,0.00,CLR,SKC,0.00,WeatherDisplay:10.37,2013-03-17 03:23:00,
2013-03-16 23:30:00,38.9,28.1,29.76,NNE,24,4.6,4.6,65,0.00,CLR,SKC,0.00,WeatherDisplay:10.37,2013-03-17 03:30:00,
2013-03-16 23:35:00,38.9,28.1,29.76,NNE,24,4.6,4.6,65,0.00,CLR,SKC,0.00,WeatherDisplay:10.37,2013-03-17 03:35:00,
2013-03-16 23:46:00,38.9,28.1,29.76,NNE,24,4.6,4.6,65,0.00,CLR,SKC,0.00,WeatherDisplay:10.37,2013-03-17 03:46:00,